Temp
11 11 10 10 10 10 11 11 11 13 16 19 21 22 22 22 24 24 24 29 30 31 30 31 32 33 34 32 35 29 28 30 31 30 31 33 31 31 31 31 29 29 31 31 31
11 11 10 10 10 10 10 10 11 12 17 19 20 21 22 21 22 23 29 29 30 31 31 32 32 33 33 35 35 30 28 31 35 33 34 34 32 30 29 29 29 28 31 32 31
11 10 10 10 10 10 10 10 10 11 15 19 20 21 22 21 21 28 33 32 31 31 31 31 32 33 33 35 34 32 31 35 35 35 36 36 31 30 28 27 28 29 30 31 31
10 10 10 10 10 10 10 10 10 11 14 18 20 21 21 21 27 32 33 32 32 31 31 32 32 32 33 35 38 34 35 36 36 36 37 36 33 32 31 29 29 29 27 31 31
10 10 10 10 10 10 10 10 10 11 14 18 19 21 21 21 24 31 32 32 31 31 31 31 31 32 34 37 37 36 36 38 36 37 36 37 33 32 32 32 30 30 29 27 30
10 10 10 10 10 10 10 10 11 12 15 17 19 20 18 23 31 32 32 31 31 31 32 32 32 35 35 36 36 37 37 37 37 37 38 37 33 34 32 33 31 30 28 27 26
10 9 10 9 9 9 10 12 12 13 16 18 19 17 21 23 32 32 33 31 32 32 31 34 35 34 34 35 38 37 35 36 36 37 37 35 31 31 33 33 32 29 27 24 21
10 9 9 9 10 11 12 14 15 16 17 18 19 17 20 30 31 32 33 33 33 33 34 35 36 34 35 36 37 36 35 32 36 37 37 37 30 29 31 31 27 29 25 23 21
9 9 9 9 11 12 14 16 17 18 19 19 17 18 24 32 31 32 33 34 34 34 35 36 36 34 34 33 31 34 30 33 35 37 37 33 29 29 32 32 28 30 24 23 21
9 9 9 9 11 13 16 17 18 19 20 16 19 21 24 30 33 33 34 34 34 33 34 34 33 31 31 31 29 32 34 35 34 35 35 32 30 32 32 33 31 30 23 22 21
9 9 9 9 12 14 17 17 17 18 20 23 25 26 32 31 34 33 34 34 34 34 30 32 30 29 31 33 35 36 34 34 34 36 34 33 31 31 32 33 28 26 25 22 21
9 9 9 10 11 13 13 17 26 27 26 24 27 28 30 33 32 33 34 32 32 31 32 31 30 33 35 36 36 35 34 34 35 35 35 34 32 33 32 32 30 27 26 24 23
9 9 9 10 12 14 16 20 26 26 26 30 28 28 31 35 33 32 33 32 33 31 32 30 32 35 35 36 36 35 34 35 35 36 37 31 31 30 31 30 30 28 27 25 25
9 9 9 11 14 18 20 27 26 25 24 29 29 31 32 34 32 35 35 33 33 32 33 32 35 36 35 35 34 34 36 37 36 35 30 33 26 29 29 30 30 28 27 26 25
9 9 9 9 11 17 26 26 28 27 24 33 31 34 33 31 33 33 36 34 32 32 33 32 34 34 34 35 37 34 37 37 36 33 33 32 27 29 27 29 30 28 29 28 27
9 8 8 12 11 23 26 27 29 25 26 33 33 32 31 32 33 34 34 34 34 33 33 33 36 35 35 37 36 37 35 35 35 31 28 31 29 27 27 28 29 31 31 30 29
9 8 8 13 21 24 25 26 24 25 33 32 31 32 32 31 32 32 33 32 31 29 30 33 34 35 36 35 36 35 32 28 28 28 28 30 25 24 27 28 28 29 32 30 30
10 11 13 18 21 21 23 24 24 30 31 35 33 33 31 32 32 33 32 31 32 31 30 30 30 34 36 34 34 32 31 27 30 28 29 29 25 25 27 25 26 30 31 31 30
16 15 15 22 23 19 22 23 26 31 35 35 34 32 31 33 32 32 32 32 32 32 30 30 31 35 36 37 34 32 31 32 30 32 27 24 26 25 26 26 26 28 32 31 31
17 20 21 24 23 21 23 23 28 32 34 34 34 33 31 32 32 31 31 33 33 34 33 32 30 34 36 36 35 33 34 30 27 28 29 24 24 24 25 26 27 26 31 31 31
16 22 25 24 24 23 23 26 29 32 33 33 32 33 33 33 33 32 33 34 35 35 34 33 31 33 34 33 32 32 31 31 28 30 29 23 24 24 24 25 27 24 32 31 30
21 24 26 24 23 24 25 27 26 31 34 34 33 33 33 34 33 33 33 34 36 35 33 33 31 29 32 35 36 34 33 31 31 29 28 23 24 29 25 27 26 27 23 31 30
20 25 27 27 24 26 27 29 31 31 33 34 34 34 33 32 32 34 34 37 36 36 33 33 30 28 30 33 35 34 33 33 32 33 28 25 27 28 27 26 24 24 22 29 30
19 25 26 26 26 27 27 29 30 33 34 34 33 34 31 31 33 33 34 37 37 36 33 33 31 30 29 27 29 31 32 33 33 30 28 29 27 26 26 25 23 23 23 23 28
21 25 25 25 26 27 28 28 30 31 34 33 31 30 29 24 26 29 30 33 36 33 35 32 30 32 28 29 32 31 32 33 32 31 31 30 27 25 24 25 24 25 23 23 23
22 22 25 24 28 28 27 28 30 32 30 31 28 28 26 25 25 24 25 26 27 27 32 33 29 32 31 32 33 33 33 34 34 30 29 27 26 24 23 23 24 27 23 22 23
21 22 23 24 25 24 24 25 30 31 25 25 27 25 24 24 23 23 21 24 26 26 26 30 29 29 29 32 30 30 33 33 32 29 29 26 25 24 22 23 22 21 21 21 22
Height
794 792 789 787 785 782 780 779 777 775 774 774 773 772 771 768 766 765 762 756 754 753 752 748 745 738 737 739 736 749 785 788 781 778 771 748 760 756 754 756 762 763 759 762 768
794 791 789 786 784 781 779 777 775 773 772 772 772 772 770 768 764 758 750 752 753 753 754 751 744 737 736 732 735 755 781 775 748 754 754 746 752 766 767 762 767 769 762 765 767
793 790 787 785 782 780 777 775 774 772 771 771 771 770 770 769 767 746 741 745 749 752 753 749 745 742 742 731 740 750 769 745 746 739 735 742 755 757 767 778 759 763 763 763 769
792 790 787 784 781 778 776 774 772 771 770 770 770 770 770 770 774 740 738 742 747 751 752 748 744 750 750 748 725 751 742 737 738 736 736 743 748 756 755 758 751 754 760 762 768
792 789 786 783 780 777 775 772 771 770 769 769 769 770 770 771 756 741 740 742 746 749 749 749 751 748 749 733 729 741 739 731 732 733 733 732 748 752 758 745 748 753 755 760 763
791 788 785 782 779 776 773 770 769 768 768 769 769 770 772 775 736 740 739 741 744 746 746 746 744 735 736 735 739 733 734 733 731 732 729 739 749 744 750 744 746 750 761 765 768
790 787 783 780 778 775 771 768 767 767 768 769 770 771 770 754 735 742 737 739 741 742 743 740 735 738 734 742 723 730 750 739 736 733 736 735 763 762 743 739 740 756 773 778 782
789 786 782 779 776 773 769 767 765 766 767 769 770 772 766 737 736 736 736 738 739 740 740 735 734 732 736 729 731 744 748 773 739 734 734 739 784 760 744 743 758 757 771 776 783
787 784 781 777 774 771 768 766 765 766 767 769 772 772 758 735 735 734 734 735 737 737 736 735 734 737 739 757 768 754 786 770 756 730 735 751 783 758 743 742 754 745 766 774 778
785 782 779 776 773 769 767 766 766 767 769 771 771 775 748 732 729 732 732 732 734 735 738 740 744 760 758 769 803 779 767 758 764 746 738 756 770 753 746 745 751 751 768 773 779
784 780 777 774 771 769 768 768 771 773 767 756 748 741 725 723 725 729 730 731 731 737 762 748 772 780 763 753 743 747 758 760 751 739 749 755 762 757 748 745 761 766 774 780 785
781 778 774 771 769 768 769 766 748 753 752 740 737 735 725 725 732 728 729 740 742 760 751 763 775 750 740 739 742 746 758 759 748 741 746 750 763 752 750 753 757 767 773 778 783
779 775 772 769 766 765 763 754 746 746 751 730 725 730 723 717 726 728 725 731 742 756 755 769 752 734 739 742 748 748 757 753 758 739 734 758 774 771 758 754 755 765 769 776 780
775 772 769 766 768 763 757 744 748 751 770 736 726 720 719 717 731 714 718 728 737 754 749 753 733 737 739 742 747 763 733 734 745 755 791 749 821 782 771 763 762 764 771 776 778
770 767 765 765 762 759 746 745 745 751 802 706 718 703 707 725 717 719 712 723 745 743 744 753 742 742 747 739 727 752 726 734 740 759 761 768 801 782 776 774 767 765 766 770 772
765 762 761 761 759 746 744 742 745 779 781 719 706 717 723 721 721 713 717 717 721 738 734 737 715 724 728 717 721 722 735 738 742 763 806 780 793 801 789 776 766 756 756 762 766
758 754 755 755 749 745 745 745 777 783 705 722 721 713 722 729 726 724 729 740 753 771 768 743 733 718 713 733 722 731 758 804 809 809 815 777 808 815 785 772 770 764 752 758 761
751 748 746 744 745 747 746 759 782 732 724 698 708 713 730 723 726 722 731 747 734 742 759 771 774 731 712 727 742 748 758 802 814 816 805 777 819 805 775 774 766 753 748 754 761
748 746 745 739 743 748 753 773 751 720 697 698 706 723 730 719 723 725 729 735 730 728 761 765 758 711 707 708 723 747 767 740 776 768 809 821 798 775 769 766 765 761 747 753 756
747 745 738 736 742 747 757 761 731 705 695 693 709 709 732 723 728 728 729 715 722 713 714 731 765 719 704 704 711 731 725 774 784 812 818 829 819 802 779 770 762 770 751 752 752
746 743 732 735 742 748 760 745 724 702 699 703 710 711 706 715 715 724 723 708 702 707 707 718 742 732 714 724 737 738 750 748 767 772 800 839 825 768 780 767 765 775 747 750 751
746 743 730 736 749 743 746 731 718 706 691 693 696 699 700 698 710 714 715 702 683 692 717 708 729 755 735 702 693 712 731 738 765 779 783 814 815 743 759 766 773 771 777 745 747
749 734 730 732 750 741 729 723 712 708 698 692 698 688 687 701 715 698 695 676 674 687 706 706 738 767 752 720 702 721 719 721 727 729 773 810 796 745 748 766 769 760 772 755 745
751 740 730 729 725 731 731 721 715 691 692 686 692 686 699 707 686 696 693 676 669 677 682 693 723 744 764 764 737 740 730 722 726 756 767 764 771 762 755 754 765 767 779 767 751
744 735 729 739 732 726 725 721 716 707 686 686 698 706 710 738 720 712 701 687 671 676 680 699 734 723 738 733 722 727 728 723 730 729 744 747 759 762 759 753 750 742 758 767 768
747 747 731 731 711 718 718 719 711 699 703 705 718 716 722 733 735 740 732 722 721 705 694 693 734 718 731 719 715 723 717 715 713 735 744 750 760 750 748 746 741 731 751 764 769
749 745 740 728 726 731 735 728 706 696 720 719 720 720 732 733 723 724 727 720 718 723 721 712 723 736 751 721 731 752 719 713 711 725 730 758 752 737 749 747 744 745 745 755 767
Wind_Speed
15 15 15 15 14 14 13 13 12 12 11 11 10 10 12 16 18 12 9 11 7 12 21 23 26 30 25 14 11 9 3 1 7 3 5 1 11 6 5 10 6 7 10 20 28
16 16 16 15 15 15 14 13 13 12 11 10 9 9 11 15 17 14 23 17 18 15 14 15 18 22 6 12 2 4 4 3 6 6 3 14 13 8 4 4 5 4 14 26 26
16 16 16 16 15 16 15 14 13 12 10 9 8 8 9 11 5 8 7 23 21 19 15 19 24 17 15 14 4 6 4 4 6 6 4 5 17 14 12 5 5 14 15 17 16
16 16 15 16 16 15 14 14 13 12 10 7 6 6 7 4 1 5 5 20 19 16 13 13 10 11 11 11 3 4 9 2 5 4 3 6 17 6 8 8 7 10 7 13 12
17 17 16 15 16 16 16 15 13 11 9 6 4 5 2 3 9 6 1 11 20 17 15 11 14 15 16 5 3 3 3 3 8 7 7 10 13 9 3 9 10 12 11 6 7
17 17 16 16 17 17 17 17 12 10 7 4 3 1 1 5 17 15 5 11 15 18 15 16 10 15 8 6 4 3 5 4 7 7 3 6 8 9 6 10 17 14 9 11 12
17 17 17 16 17 17 18 19 12 7 5 4 3 2 5 16 8 4 8 14 17 21 11 23 26 12 10 11 5 4 7 6 7 7 5 9 5 1 3 8 18 15 12 11 16
17 17 17 17 17 20 20 14 6 3 4 5 4 1 8 15 12 20 12 16 14 21 23 27 26 9 6 10 6 5 6 5 5 6 3 1 4 7 9 8 5 24 17 14 10
19 18 18 18 18 20 16 5 2 4 5 4 1 4 9 9 12 18 17 16 22 23 26 23 10 3 8 8 6 4 7 7 5 1 3 6 3 8 8 4 9 11 15 15 13
19 19 19 19 19 18 7 1 3 5 2 2 10 5 8 8 16 21 19 19 11 10 9 9 1 5 7 6 6 3 2 5 6 2 4 15 8 5 7 2 9 7 12 10 12
20 20 20 19 17 14 1 2 1 1 7 10 9 7 9 15 14 12 17 18 10 7 8 8 4 10 15 12 10 6 5 9 6 5 3 8 7 11 9 7 13 10 13 10 10
21 21 21 19 16 13 6 5 7 11 8 21 19 18 26 18 7 12 24 8 8 8 10 7 12 15 17 11 6 11 8 8 5 14 8 5 8 6 5 8 15 14 9 10 8
23 22 20 19 17 11 14 21 10 20 4 8 17 11 13 4 10 12 14 13 6 10 11 11 14 18 18 16 9 6 6 6 9 4 2 9 4 5 4 5 17 13 12 11 12
23 21 19 16 9 4 8 14 21 12 4 7 13 7 14 6 7 11 20 9 6 13 14 12 18 18 15 6 11 5 8 10 5 1 6 8 4 5 2 3 7 14 11 10 11
25 21 16 8 11 5 7 7 10 9 4 10 10 10 9 10 5 15 22 10 12 9 9 15 14 12 13 11 5 10 6 2 5 6 4 2 6 3 3 2 2 13 14 16 14
26 21 14 7 9 18 15 12 7 2 7 9 10 9 10 10 12 8 12 9 10 12 10 12 14 11 14 5 7 8 8 5 6 4 4 5 8 4 2 4 3 6 15 18 16
27 19 13 7 5 5 10 7 2 5 7 13 10 17 13 10 14 10 16 14 12 7 9 11 13 13 10 7 5 6 5 3 5 3 2 9 9 8 11 12 4 12 13 17 13
22 14 8 25 11 7 9 2 5 10 12 3 9 15 14 11 12 12 14 11 13 12 6 8 10 10 9 8 5 7 8 5 5 2 4 5 7 7 2 7 9 9 15 13 16
9 5 4 13 15 5 2 5 6 7 5 10 18 15 10 12 9 9 11 15 14 15 10 7 10 11 14 4 9 10 4 8 4 3 5 1 4 8 4 7 6 14 14 10 15
3 7 10 12 16 7 3 7 9 12 18 12 8 9 10 13 12 10 11 14 15 17 12 14 6 10 14 9 9 10 4 5 4 3 1 1 4 5 6 3 5 12 13 9 9
1 3 14 19 16 3 5 6 10 19 20 2 8 10 11 13 14 10 12 9 18 15 15 13 5 18 6 9 10 4 3 3 6 6 8 4 5 8 7 10 14 13 14 11 9
6 3 21 23 4 4 9 7 9 22 23 5 9 17 9 13 11 15 13 13 17 19 12 12 3 6 11 8 15 10 11 11 7 6 5 4 6 10 18 10 6 12 20 12 10
3 3 18 19 4 7 10 18 20 22 20 6 9 10 4 5 7 15 11 9 10 18 13 7 4 5 11 8 3 5 8 7 5 3 7 6 5 8 13 12 7 10 10 12 9
3 2 3 6 9 13 13 13 16 18 17 13 10 9 8 22 8 7 10 13 8 9 5 5 6 7 7 6 4 2 11 11 2 3 10 11 6 10 16 13 7 18 6 14 7
4 2 3 4 9 13 13 10 20 17 9 8 9 14 7 6 10 11 13 5 5 10 6 4 6 7 9 8 4 6 5 12 7 8 5 14 13 6 7 5 7 4 10 17 16
3 4 6 11 11 12 14 12 18 20 10 3 17 17 13 5 4 5 7 7 6 11 7 3 6 4 4 8 9 8 12 9 15 14 15 11 5 8 3 2 4 10 9 8 19
10 12 3 8 10 6 3 11 15 8 9 11 7 8 9 7 3 7 7 9 5 2 4 4 4 3 6 6 10 9 9 15 1 16 17 7 9 5 5 7 8 7 12 23 21
Wind_Direction
351 348 346 345 341 335 326 322 314 306 303 300 298 303 304 307 302 291 236 232 238 274 278 295 300 286 272 245 232 145 119 294 161 82 294 318 84 44 117 86 83 299 151 146 156
348 347 344 343 340 338 329 320 315 309 301 298 298 300 305 320 318 261 243 238 238 278 298 296 299 305 269 251 127 101 108 254 137 186 204 128 100 67 11 23 80 31 135 152 154
347 345 341 340 340 337 332 322 315 307 301 295 292 296 311 335 286 250 255 222 233 257 271 282 289 299 302 296 162 166 142 214 177 106 150 60 131 181 145 315 207 159 163 157 168
346 342 341 339 337 334 330 322 315 306 299 290 286 293 318 356 253 329 212 202 213 236 259 277 284 289 277 269 157 133 214 254 60 155 188 122 144 155 157 216 193 183 142 162 169
345 340 339 336 335 331 327 320 311 301 294 285 279 297 359 236 249 245 247 204 213 223 233 253 270 277 280 328 132 113 286 142 156 199 244 114 150 123 296 181 175 187 148 201 188
342 339 336 334 331 328 323 320 302 292 284 265 251 334 317 253 241 234 198 187 199 209 230 242 255 276 299 300 65 14 277 295 170 211 217 101 40 83 236 162 168 178 184 224 111
341 337 335 331 330 328 320 316 299 279 258 219 198 20 264 242 259 263 194 200 199 213 233 245 254 276 323 317 143 216 290 241 258 182 173 122 28 86 245 360 178 163 64 93 92
339 336 333 330 328 329 326 316 291 246 206 183 177 158 251 261 280 275 243 205 208 224 230 253 272 277 296 293 286 212 261 269 242 139 109 119 254 274 271 63 9 117 141 114 114
337 333 329 328 330 330 325 302 196 162 167 156 274 214 263 281 231 233 255 232 200 226 231 252 288 292 306 287 313 246 233 233 190 204 215 99 272 265 282 92 198 119 120 116 112
334 330 325 325 328 331 327 140 96 116 160 228 268 290 259 226 196 213 240 242 206 219 222 253 359 277 275 267 252 299 337 334 152 241 271 144 197 158 238 319 175 126 115 107 113
331 328 324 322 323 330 82 11 171 229 236 204 194 232 271 225 192 196 221 237 243 197 218 228 216 234 243 247 320 213 161 250 142 279 221 170 151 193 189 158 90 93 122 135 140
330 325 322 322 314 313 255 253 257 348 261 223 243 239 266 259 168 198 206 205 215 195 220 243 227 246 249 249 251 228 245 250 142 223 180 138 132 137 121 94 124 117 108 111 116
329 323 319 315 312 285 219 235 282 335 288 269 206 230 246 231 188 203 182 213 208 212 213 222 232 231 248 251 225 245 252 283 147 213 223 96 52 25 65 69 115 124 131 138 153
328 320 315 313 303 268 236 261 245 271 291 253 177 219 241 186 271 223 192 193 233 207 231 227 248 251 248 235 198 269 244 269 297 283 219 171 201 224 39 70 112 134 138 146 172
326 318 308 289 295 254 283 232 197 218 307 156 145 192 189 181 193 227 192 201 225 232 198 243 235 247 268 253 196 259 307 292 295 304 271 66 109 236 127 168 203 156 164 166 184
325 313 299 258 241 253 304 341 222 250 246 166 153 162 182 199 235 201 189 198 219 242 248 242 255 247 240 252 223 257 286 248 242 245 360 13 39 323 266 195 221 161 165 166 182
325 308 246 204 210 337 288 298 186 237 277 146 165 168 199 190 219 221 183 191 216 208 249 261 251 265 251 262 204 243 323 318 329 352 193 66 58 294 352 356 311 326 149 175 159
328 316 244 215 227 301 302 228 244 229 254 322 164 167 203 187 224 230 173 192 219 239 209 233 269 242 255 190 211 245 207 171 239 117 184 12 146 230 142 326 269 298 137 157 146
326 317 235 234 211 259 279 217 213 237 338 261 165 174 190 212 181 226 186 197 200 224 227 221 234 247 226 175 164 265 304 232 126 79 71 276 300 285 262 350 319 339 144 159 160
335 254 224 170 176 209 243 247 246 296 309 334 175 174 174 214 193 209 193 196 214 213 223 258 290 257 224 200 199 195 222 46 13 92 126 342 274 262 27 292 284 339 153 169 161
243 245 126 162 159 227 226 242 259 271 277 355 313 307 186 197 200 214 223 200 203 223 208 235 212 278 291 195 188 224 196 153 140 149 208 136 278 217 216 168 245 334 169 173 164
303 264 147 157 175 203 235 244 260 277 295 251 262 281 279 201 193 205 220 204 203 206 216 215 201 251 248 271 182 187 212 197 206 228 82 100 259 262 207 221 265 288 351 171 169
275 268 165 187 233 229 231 251 261 270 276 250 226 279 354 289 215 205 226 231 221 191 206 202 238 283 320 318 184 178 252 230 234 247 167 120 248 212 201 180 191 76 337 283 164
275 280 163 213 261 287 291 260 253 260 262 290 310 313 25 283 260 196 209 223 232 167 180 136 184 170 232 200 178 349 327 321 347 235 151 177 156 178 195 212 157 142 223 339 280
231 281 292 242 236 240 263 286 289 281 227 266 293 34 47 12 358 2 2 14 205 143 126 144 218 217 125 189 188 201 271 292 290 273 202 152 140 154 212 234 129 134 29 342 322
318 353 343 296 274 213 233 258 270 277 327 110 54 53 26 79 79 308 344 34 31 324 170 214 236 228 254 197 156 233 237 269 283 91 73 65 85 211 239 290 172 139 109 306 289
353 340 281 289 21 7 18 350 309 354 53 49 23 79 30 310 278 213 223 284 230 20 317 291 156 202 263 230 206 237 226 236 318 138 143 129 228 192 138 182 125 137 124 217 252